User: anonymous   Login
Location: Stonelick Lake State Park
(39.2170°N, 84.0850°W)
Time: 00:01:34
(UTC-05:00)
Language:

Abrixas rocket - Orbit

View from above orbital plane
View from above orbital plane
View from above satellite
View from above satellite

Ground track
Ground track

The orbit data is extracted from the following two-line orbital elements,

1 25723U 99022C   17023.80399612  .00005604  00000-0  98380-4 0  9999
2 25723  48.4156 216.0762 0009462  59.9915 300.1967 15.51989729984050
Epoch (UTC): 23 January 2017 19:17:45
Eccentricity: 0.0009462
inclination: 48.4156°
perigee height: 404 km
apogee height: 417 km
right ascension of ascending node: 216.0762°
argument of perigee: 59.9915°
revolutions per day: 15.51989729
mean anomaly at epoch: 300.1967°
orbit number at epoch: 98405

The dashed part of the orbit path shows where the satellite is in the earth's shadow,  

DLR